GW3839 Weather Reports


time (UTC)temp
C
wind
direction
speed
KPH
gust
KPH
rain 1hr
cm
rain 24hr
cm
rain mn
cm
humidity
%
barometer
mb
20260505163351 10 51 3.2 4.8 0.00 1.83 1.83 80 1011.2
20260505162849 10 43 1.6 3.2 0.00 1.83 1.83 81 1011.2
20260505162345 10 38 3.2 3.2 0.00 1.83 1.83 80 1011.0
20260505161842 10 26 1.6 3.2 0.00 1.83 1.83 79 1011.0
20260505161339 10 16 8.0 12.9 0.00 1.83 1.83 80 1011.1
20260505160836 10 31 3.2 4.8 0.00 1.83 1.83 80 1011.3
20260505160335 10 52 6.4 6.4 0.00 1.83 1.83 82 1011.4
20260505153314 10 45 1.6 3.2 0.00 1.83 1.83 83 1011.3
20260505152811 9 53 3.2 4.8 0.00 1.83 1.83 84 1011.4
20260505152308 8 53 8.0 12.9 0.00 1.83 1.83 83 1011.3
20260505151802 9 38 3.2 4.8 0.00 1.83 1.83 83 1011.2
20260505151300 8 48 6.4 6.4 0.00 1.83 1.83 84 1011.3
20260505150756 8 45 8.0 12.9 0.00 1.83 1.83 83 1011.2
20260505150253 8 51 3.2 6.4 0.00 1.83 1.83 84 1011.1
20260505140218 8 24 6.4 9.7 0.00 1.80 1.80 85 1009.8
20260505130141 9 330 3.2 4.8 0.30 1.73 1.73 87 1011.4
20260505124625 10 336 3.2 4.8 0.36 1.65 1.65 86 1012.2
20260505124122 10 323 6.4 6.4 0.00 1.60 1.60 89 1011.3
20260505123618 10 293 1.6 1.6 0.13 1.60 1.60 89 1011.6
20260505123115 10 334 0.0 1.6 0.43 1.60 1.60 87 1011.4
20260505122611 10 342 4.8 4.8 0.48 1.57 1.57 85 1010.9
20260505122109 10 12 4.8 6.4 0.30 1.55 1.55 84 1010.6
20260505121604 10 331 1.6 1.6 0.00 1.50 1.50 83 1011.3
20260505121101 10 283 3.2 3.2 0.00 1.50 1.50 83 1011.3
20260505120552 10 331 1.6 3.2 0.00 1.50 1.50 86 1010.9
20260505120048 10 321 3.2 4.8 0.00 1.50 1.50 86 1010.5
20260505115548 10 334 3.2 3.2 0.00 1.50 1.50 87 1010.6
20260505115045 10 328 0.0 0.0 0.00 1.50 1.50 87 1010.6
20260505114542 10 323 1.6 1.6 0.00 1.50 1.50 88 1010.5
20260505114038 10 332 1.6 1.6 0.00 1.50 1.50 88 1010.2
20260505113530 10 44 0.0 0.0 0.00 1.50 1.50 90 1009.8
20260505113026 10 44 0.0 1.6 0.00 1.50 1.50 89 1009.6
20260505112522 10 44 1.6 1.6 0.00 1.50 1.50 88 1009.7
20260505112020 10 32 0.0 0.0 0.00 1.50 1.50 87 1009.7
20260505111514 10 38 4.8 6.4 0.00 1.50 1.50 86 1009.3
20260505111011 10 359 4.8 4.8 0.13 1.50 1.50 85 1009.3
20260505110508 10 34 1.6 3.2 0.30 1.50 1.50 87 1009.5
20260505101939 12 283 3.2 3.2 0.61 1.22 1.22 82 1009.5
20260505101433 12 318 12.9 16.1 0.48 1.19 1.19 79 1009.4
20260505100929 13 317 6.4 6.4 0.00 1.12 1.12 80 1009.8
20260505100426 13 265 9.7 14.5 0.00 1.12 1.12 83 1010.1
20260505095921 13 325 6.4 6.4 0.00 1.12 1.12 80 1008.9
20260505095419 13 326 6.4 6.4 0.00 1.12 1.12 81 1008.6
20260505094915 13 336 3.2 4.8 0.00 1.12 1.12 82 1008.6
20260505094412 13 342 3.2 3.2 0.00 1.12 1.12 84 1008.8
20260505093908 13 342 6.4 11.3 0.00 1.12 1.12 86 1008.5
20260505093405 13 327 0.0 1.6 0.00 1.12 1.12 91 1008.5
20260505092902 13 288 1.6 1.6 0.00 1.12 1.12 91 1008.4
20260505092400 13 252 1.6 1.6 0.00 1.12 1.12 91 1008.2
20260505091857 13 211 1.6 3.2 0.00 1.12 1.12 90 1007.7
20260505091355 13 299 3.2 4.8 0.00 1.12 1.12 89 1007.6
20260505090853 13 331 0.0 1.6 0.00 1.12 1.12 89 1007.2
20260505090351 14 322 3.2 4.8 0.00 1.12 1.12 90 1007.1
20260505085848 14 306 8.0 9.7 0.00 1.12 1.12 92 1006.9
20260505085346 14 320 4.8 4.8 0.00 1.12 1.12 93 1006.3
20260505084843 14 331 6.4 9.7 0.00 1.12 1.12 92 1006.4
20260505084341 14 349 6.4 6.4 0.00 1.12 1.12 92 1006.1
20260505083838 14 4 6.4 9.7 0.00 1.12 1.12 92 1006.4
20260505083336 14 343 6.4 9.7 0.00 1.12 1.12 90 1006.4
20260505082832 14 353 3.2 4.8 0.00 1.12 1.12 89 1006.4
20260505082328 15 274 6.4 9.7 0.00 1.12 1.12 87 1006.3
20260505081825 14 320 3.2 4.8 0.00 1.12 1.12 91 1006.4
20260505081322 13 336 11.3 12.9 0.00 1.12 1.12 94 1006.4
20260505080819 14 306 4.8 4.8 0.00 1.12 1.12 97 1006.6
20260505080315 14 295 1.6 3.2 0.00 1.12 1.12 97 1006.7
20260505075810 14 340 3.2 4.8 0.00 1.12 1.12 97 1006.9
20260505075307 14 324 3.2 3.2 0.00 1.12 1.12 97 1007.1
20260505074805 14 291 4.8 4.8 0.13 1.12 1.12 97 1007.2
20260505074302 15 333 1.6 3.2 0.30 1.12 1.12 98 1007.6
20260505073759 15 298 4.8 6.4 0.30 1.09 1.09 98 1007.5
20260505073257 15 229 8.0 11.3 0.43 1.07 1.07 97 1007.3
20260505072754 15 179 9.7 12.9 0.66 1.04 1.04 96 1007.2
20260505072250 15 202 12.9 20.9 0.66 0.99 0.99 96 1006.6
20260505071745 15 176 9.7 12.9 0.61 0.94 0.94 95 1006.8
20260505071242 15 243 6.4 9.7 0.61 0.89 0.89 94 1007.2
20260505070740 15 232 6.4 9.7 0.61 0.86 0.86 94 1007.8
20260505070236 15 285 9.7 14.5 0.43 0.79 0.79 95 1008.3
20260505065732 15 261 8.0 9.7 0.30 0.74 0.74 93 1008.2
20260505065229 15 242 9.7 11.3 0.18 0.71 0.71 92 1008.3
20260505064726 15 271 8.0 12.9 0.00 0.69 0.69 91 1008.1
20260505064223 15 228 11.3 14.5 0.00 0.69 0.69 91 1007.8
20260505063721 15 277 12.9 14.5 0.00 0.69 0.69 91 1007.2
20260505063216 14 281 8.0 11.3 0.00 0.69 0.69 92 1007.2
20260505062713 13 233 8.0 11.3 0.18 0.69 0.69 91 1006.7
20260505062206 13 211 4.8 4.8 0.18 0.69 0.69 91 1006.4
20260505061702 13 216 8.0 11.3 0.00 0.66 0.66 91 1006.3
20260505061200 13 186 3.2 4.8 0.00 0.66 0.66 91 1006.3
20260505060657 13 233 0.0 1.6 0.13 0.66 0.66 91 1006.2
20260505060154 13 274 3.2 4.8 0.71 0.66 0.66 90 1006.6
20260505055649 13 241 6.4 6.4 0.89 0.64 0.64 90 1006.7
20260505055146 13 273 1.6 4.8 1.27 0.53 0.53 89 1006.7
20260505054643 14 264 6.4 6.4 1.37 0.48 0.48 89 1006.9
20260505054141 15 202 3.2 4.8 1.19 0.33 0.33 88 1006.6
20260505053639 15 283 9.7 12.9 1.55 0.25 0.25 85 1007.2
20260505053135 17 314 11.3 14.5 0.79 0.13 0.13 88 1007.0
20260505052632 18 235 16.1 20.9 0.00 0.00 0.00 78 1007.7
20260505052130 18 189 17.7 24.1 0.00 0.00 0.00 74 1004.7
20260505051626 18 190 17.7 22.5 0.00 0.00 0.00 75 1004.2
20260505051125 18 196 17.7 20.9 0.00 0.00 0.00 74 1004.1
20260505050622 18 188 17.7 25.7 0.00 0.00 0.00 73 1004.1
20260505050120 18 157 12.9 14.5 0.00 0.00 0.00 75 1003.8
20260505041550 18 155 9.7 14.5 0.00 0.58 0.58 73 1004.2
20260505041047 18 199 12.9 20.9 0.00 0.58 0.58 74 1004.1
20260505040544 18 176 8.0 11.3 0.00 0.58 0.58 73 1003.9
20260505040041 18 181 12.9 22.5 0.00 0.58 0.58 73 1004.0
20260505035537 18 94 11.3 17.7 0.00 0.58 0.58 73 1003.9
20260505035034 18 152 8.0 11.3 0.00 0.58 0.58 73 1003.7
20260505034530 18 156 11.3 16.1 0.00 0.58 0.58 73 1003.8
20260505034028 18 169 12.9 22.5 0.00 0.58 0.58 74 1004.0
20260505033525 18 199 8.0 11.3 0.00 0.58 0.58 74 1003.8
20260505033023 18 187 8.0 9.7 0.00 0.58 0.58 75 1004.1
20260505032520 18 231 12.9 20.9 0.00 0.58 0.58 74 1004.0
20260505032017 18 195 12.9 17.7 0.00 0.58 0.58 75 1004.2
20260505031514 18 211 14.5 17.7 0.00 0.58 0.58 76 1004.2
20260505031010 18 187 9.7 16.1 0.00 0.58 0.58 74 1004.0
20260505030507 18 177 14.5 22.5 0.00 0.58 0.58 73 1004.0
20260505030003 18 122 9.7 12.9 0.00 0.58 0.58 73 1004.1
20260505025459 18 156 11.3 12.9 0.00 0.58 0.58 74 1004.0
20260505024958 19 159 8.0 9.7 0.00 0.58 0.58 73 1003.8
20260505024454 19 171 9.7 12.9 0.00 0.58 0.58 73 1003.8
20260505023952 19 192 12.9 17.7 0.00 0.58 0.58 72 1003.8
20260505023449 19 171 14.5 20.9 0.00 0.58 0.58 71 1003.8
20260505022946 19 162 8.0 11.3 0.00 0.58 0.58 71 1003.8
20260505022444 19 154 12.9 16.1 0.00 0.58 0.58 71 1003.7
20260505021941 19 139 14.5 17.7 0.00 0.58 0.58 72 1003.8
20260505021437 19 176 11.3 14.5 0.00 0.58 0.58 73 1003.6
20260505020933 19 194 6.4 11.3 0.00 0.58 0.58 73 1003.4
20260505020428 19 164 8.0 11.3 0.00 0.58 0.58 72 1003.4
20260505015925 19 159 9.7 11.3 0.00 0.58 0.58 73 1003.3
20260505015423 18 170 6.4 6.4 0.00 0.58 0.58 74 1003.4
20260505014920 18 169 8.0 12.9 0.00 0.58 0.58 75 1003.3
20260505014416 18 173 8.0 9.7 0.00 0.58 0.58 75 1003.5
20260505013914 18 117 6.4 6.4 0.00 0.58 0.58 75 1003.3
20260505013410 18 175 6.4 9.7 0.00 0.58 0.58 75 1003.2
20260505012909 18 184 6.4 9.7 0.00 0.58 0.58 74 1003.4
20260505012406 18 154 8.0 11.3 0.00 0.58 0.58 75 1003.2
20260505011902 19 153 9.7 11.3 0.00 0.58 0.58 74 1003.3
20260505011359 19 152 9.7 11.3 0.00 0.58 0.58 74 1003.1
20260505010855 18 176 12.9 17.7 0.00 0.58 0.58 73 1003.0
20260505010351 19 146 9.7 12.9 0.00 0.58 0.58 75 1003.1
20260505005847 19 175 9.7 12.9 0.00 0.58 0.58 73 1003.3
20260505005344 19 160 9.7 12.9 0.00 0.58 0.58 72 1003.3
20260505004842 19 196 12.9 17.7 0.00 0.58 0.58 73 1003.3
20260505004338 19 148 9.7 12.9 0.00 0.58 0.58 72 1003.1
20260505003836 19 134 12.9 20.9 0.00 0.58 0.58 71 1003.2
20260505003333 19 182 11.3 12.9 0.00 0.58 0.58 71 1003.1
20260505002828 19 150 11.3 16.1 0.00 0.58 0.58 72 1003.2
20260505002326 19 184 11.3 14.5 0.00 0.58 0.58 71 1003.2
20260505001824 18 154 9.7 14.5 0.00 0.58 0.58 72 1003.3
20260505001320 19 169 8.0 9.7 0.00 0.58 0.58 73 1003.2
20260505000818 20 162 12.9 16.1 0.00 0.58 0.58 71 1003.2
20260505000316 21 191 19.3 27.4 0.00 0.58 0.58 67 1003.6
20260504235812 21 175 12.9 16.1 0.00 0.58 0.58 64 1003.4
20260504235309 21 159 12.9 20.9 0.00 0.58 0.58 65 1003.8
20260504234806 21 177 9.7 11.3 0.00 0.58 0.58 66 1003.4
20260504234304 21 141 6.4 9.7 0.00 0.58 0.58 66 1003.5
20260504233800 22 173 11.3 14.5 0.00 0.58 0.58 65 1003.5
20260504233255 22 153 4.8 4.8 0.00 0.58 0.58 64 1003.6
20260504232752 22 168 9.7 16.1 0.00 0.58 0.58 62 1003.5
20260504232249 22 125 6.4 6.4 0.00 0.58 0.58 65 1003.6
20260504231746 22 168 6.4 6.4 0.00 0.58 0.58 64 1003.6
20260504231243 22 157 14.5 24.1 0.00 0.58 0.58 63 1003.8
20260504230739 22 205 11.3 12.9 0.00 0.58 0.58 64 1003.7
20260504230237 21 235 9.7 12.9 0.00 0.58 0.58 65 1004.0
20260504225736 21 180 8.0 12.9 0.00 0.58 0.58 65 1004.1
20260504225231 21 169 9.7 12.9 0.00 0.58 0.58 64 1003.9
20260504224729 21 171 9.7 14.5 0.00 0.58 0.58 63 1004.2
20260504224226 21 177 14.5 14.5 0.00 0.58 0.58 63 1004.2
20260504223722 22 175 17.7 22.5 0.00 0.58 0.58 64 1004.3
20260504223217 22 190 17.7 25.7 0.00 0.58 0.58 62 1004.3
20260504222714 22 195 11.3 16.1 0.00 0.58 0.58 64 1004.3
20260504222211 22 171 12.9 14.5 0.00 0.58 0.58 63 1004.4
20260504221709 22 161 14.5 17.7 0.00 0.58 0.58 60 1004.3
20260504221206 23 197 8.0 11.3 0.00 0.58 0.58 61 1004.4
20260504220702 23 144 11.3 16.1 0.00 0.58 0.58 59 1004.5
20260504220200 23 188 11.3 14.5 0.00 0.58 0.58 60 1004.5
20260504215656 23 174 11.3 12.9 0.00 0.58 0.58 61 1004.5
20260504215154 23 201 11.3 14.5 0.00 0.58 0.58 61 1004.3
20260504214649 23 184 19.3 25.7 0.00 0.58 0.58 60 1004.5
20260504214146 22 160 20.9 30.6 0.00 0.58 0.58 59 1004.6
20260504213642 22 193 17.7 20.9 0.00 0.58 0.58 60 1004.6
20260504213139 23 167 24.1 29.0 0.00 0.58 0.58 59 1004.6
20260504212635 23 189 25.7 33.8 0.00 0.58 0.58 62 1004.6
20260504212132 22 173 17.7 24.1 0.00 0.58 0.58 61 1004.7
20260504211630 23 160 16.1 20.9 0.00 0.58 0.58 61 1004.9
20260504211126 23 178 19.3 22.5 0.00 0.58 0.58 61 1004.9
20260504210624 22 202 14.5 20.9 0.00 0.58 0.58 59 1004.9
20260504210120 23 157 9.7 12.9 0.00 0.58 0.58 61 1005.0
20260504205618 23 174 17.7 27.4 0.00 0.58 0.58 59 1005.0
20260504205116 22 197 11.3 14.5 0.00 0.58 0.58 60 1005.1
20260504204614 22 159 14.5 20.9 0.00 0.58 0.58 63 1005.1
20260504204112 22 184 19.3 25.7 0.00 0.58 0.58 61 1005.1
20260504203611 23 153 19.3 25.7 0.00 0.58 0.58 60 1005.2
20260504203108 23 129 16.1 27.4 0.00 0.58 0.58 63 1005.3
20260504202603 23 215 16.1 22.5 0.00 0.58 0.58 61 1005.3
20260504202100 22 241 16.1 20.9 0.00 0.58 0.58 62 1005.4
20260504201556 22 144 12.9 22.5 0.00 0.58 0.58 64 1005.4
20260504201055 22 153 24.1 30.6 0.00 0.58 0.58 61 1005.2
20260504200550 22 173 14.5 17.7 0.00 0.58 0.58 63 1005.5
20260504200048 22 182 17.7 22.5 0.00 0.58 0.58 63 1005.3
20260504195544 22 162 14.5 17.7 0.00 0.58 0.58 64 1005.2
20260504195040 22 208 9.7 11.3 0.00 0.58 0.58 66 1005.3
20260504194537 21 112 19.3 25.7 0.00 0.58 0.58 63 1005.5
20260504194032 22 168 20.9 24.1 0.00 0.58 0.58 63 1005.9
20260504193529 21 172 19.3 29.0 0.00 0.58 0.58 66 1005.7
20260504193028 21 182 20.9 25.7 0.00 0.58 0.58 66 1006.1
20260504192526 21 209 12.9 20.9 0.00 0.58 0.58 66 1006.1
20260504192024 21 179 19.3 27.4 0.00 0.58 0.58 68 1005.9
20260504191521 21 182 16.1 22.5 0.00 0.58 0.58 67 1006.2
20260504191017 21 210 20.9 35.4 0.00 0.58 0.58 67 1006.1
20260504190514 21 225 24.1 29.0 0.00 0.58 0.58 64 1006.0
20260504190010 21 182 19.3 24.1 0.00 0.58 0.58 65 1006.0
20260504185507 20 215 20.9 29.0 0.00 0.58 0.58 67 1006.1
20260504185003 20 177 22.5 29.0 0.00 0.58 0.58 69 1006.3
20260504184459 20 225 20.9 27.4 0.00 0.58 0.58 71 1006.6
20260504183954 20 203 22.5 29.0 0.00 0.58 0.58 71 1006.7
20260504183452 19 231 12.9 17.7 0.00 0.58 0.58 69 1006.6
20260504182950 19 239 9.7 12.9 0.00 0.58 0.58 74 1006.6
20260504182446 19 181 9.7 12.9 0.00 0.58 0.58 72 1006.5
20260504181944 20 198 11.3 16.1 0.00 0.58 0.58 72 1006.3
20260504181440 19 208 14.5 17.7 0.00 0.58 0.58 69 1006.5
20260504180939 20 166 17.7 24.1 0.00 0.58 0.58 71 1006.6
20260504180438 20 198 16.1 20.9 0.00 0.58 0.58 69 1006.3
20260504175936 20 193 19.3 24.1 0.00 0.58 0.58 68 1006.0
20260504175432 20 184 12.9 14.5 0.00 0.58 0.58 69 1005.8
20260504174930 20 198 17.7 25.7 0.00 0.58 0.58 65 1006.2
20260504174428 21 187 22.5 30.6 0.00 0.58 0.58 64 1006.7
20260504173925 22 218 30.6 37.0 0.00 0.58 0.58 58 1006.4
20260504173421 22 195 12.9 16.1 0.00 0.58 0.58 60 1006.4
20260504172919 22 204 16.1 20.9 0.00 0.58 0.58 61 1006.4
20260504172414 22 221 17.7 22.5 0.00 0.58 0.58 59 1006.8
20260504171911 21 229 17.7 22.5 0.00 0.58 0.58 64 1006.9
20260504171408 21 208 16.1 20.9 0.00 0.58 0.58 63 1006.9
20260504170905 21 235 17.7 29.0 0.00 0.58 0.58 65 1006.8
20260504170401 21 188 17.7 22.5 0.00 0.58 0.58 63 1006.7